Regional Weather Roundup
Issued by NWS Upton, NY

Current Version | Previous Version | Graphics & Text | Print | Product List | Glossary Off
Versions: 1 2 3 4 5 6 7 8 9 10 11 12 13 14 15 16 17 18 19 20 21 22 23 24 25 26 27 28

000
ASUS41 KOKX 240005
RWROKX

REGIONAL WEATHER ROUNDUP
NATIONAL WEATHER SERVICE NEW YORK NY
800 PM EDT THU OCT 23 2014

NOTE: "FAIR" INDICATES FEW OR NO CLOUDS BELOW 12,000 FEET WITH NO
SIGNIFICANT WEATHER AND/OR OBSTRUCTIONS TO VISIBILITY.

NYZ071-072-176-178-NJZ106-104-240100-
NEW YORK CITY METRO AREA


CITY           SKY/WX    TMP DP  RH WIND       PRES   REMARKS
CENTRAL PARK   CLOUDY    52  47  83 VRB6      29.79R
LAGUARDIA APRT MOCLDY    53  46  77 NW21G29   29.75R
KENNEDY INTL   CLOUDY    54  45  71 NW16G26   29.75R
NEWARK/LIBERTY CLOUDY    53  45  74 NW12      29.78R
BRNX BOT. GARD   N/A     52  45  76 NE9       29.76F
TETERBORO      CLOUDY    53  46  77 NW10      29.77R
$$

NYZ177-179-078>081-240100-
LONG ISLAND NEW YORK

CITY           SKY/WX    TMP DP  RH WIND       PRES   REMARKS
FARMINGDALE    CLOUDY    53  45  74 N13G22    29.72R
ISLIP          CLOUDY    52  45  77 N18G28    29.68R
SHIRLEY        CLOUDY    53  47  79 NW14G21   29.69R
WESTHAMPTON    LGT RAIN  55  48  77 N16G25    29.68R
MONTAUK POINT    N/A     56  52  86 N16G28    29.62R
$$

NYZ052-065-067-240100-
HUDSON VALLEY

CITY           SKY/WX    TMP DP  RH WIND       PRES   REMARKS
WHITE PLAINS   MOCLDY    50  43  77 N24G30    29.73R
NEWBURGH       CLOUDY    50  46  87 N8        29.80R
MONTGOMERY     CLOUDY    50  48  93 CALM      29.79R
POUGHKEEPSIE   CLOUDY    51  43  74 N15G24    29.79R
ALBANY         LGT RAIN  48  45  89 N8        29.85S
$$

NJZ001-105-106-008-010-013-015-019>022-104-240100-
NEW JERSEY

CITY           SKY/WX    TMP DP  RH WIND       PRES   REMARKS
NEWARK/LIBERTY CLOUDY    53  45  74 NW12      29.78R
TETERBORO      CLOUDY    53  46  77 NW10      29.77R
CALDWELL       CLOUDY    52  42  69 NW9       29.79R
MORRISTOWN     CLOUDY    54  45  71 N10G22    29.79R
SOMERVILLE     CLOUDY    54  43  66 N14       29.78S
SUSSEX         CLOUDY    53  43  68 N7        29.81R
ANDOVER          N/A     50  43  77 N10G18    29.81R
TRENTON        CLOUDY    53  43  68 NW7       29.79R
MILLVILLE      PTCLDY    53  45  74 NW9       29.82R
ATLANTIC CITY  CLOUDY    53  45  74 NW14G21   29.79R
WRIGHTSTOWN    CLOUDY    53  44  73 NW14      29.77S
TOMS RIVER     MOCLDY    52  45  76 NW6       29.77S
BELMAR         CLOUDY    52  43  71 NW15      29.75S
$$

PAZ047>061-062-071-240100-
EASTERN PENNSYLVANIA

CITY           SKY/WX    TMP DP  RH WIND       PRES   REMARKS
PHILADELPHIA   MOCLDY    55  43  63 NW12      29.84R
ALLENTOWN      CLOUDY    52  42  69 VRB3      29.85S
SCRANTON       CLOUDY    50  43  77 N6        29.89R
$$

CTZ002-004>006-009-010-012-RIZ004-006-007-MAZ004-011-015-240100-
SOUTHERN NEW ENGLAND
 IN CT

CITY           SKY/WX    TMP DP  RH WIND       PRES   REMARKS
BRADLEY INTL   CLOUDY    53  46  77 N17G25    29.71R
HARTFORD       CLOUDY    53  47  79 N15G22    29.71R
DANBURY        CLOUDY    49  41  74 N12       29.76R
WTRBRY/OXFORD  DRIZZLE   48  39  71 N12G20    29.73R
BRIDGEPORT     CLOUDY    51  44  77 NW14G24   29.69R
MERIDEN        CLOUDY    53  47  79 N15G23    29.70R
NEW HAVEN      CLOUDY    55  46  71 N15G21    29.68R
CHESTER        LGT RAIN  50  48  93 N13G23    29.67R
GROTON         CLOUDY    53  50  89 N15G24    29.62R
WILLIMANTIC    CLOUDY    53  49  86 N9G22     29.68R

 IN RI

CITY           SKY/WX    TMP DP  RH WIND       PRES   REMARKS
PROVIDENCE     RAIN      53  51  93 N20G28    29.63R FOG
BLOCK ISLAND   CLOUDY    54  50  87 N17G31    29.58R
WESTERLY       LGT RAIN  54  51  90 N17G26    29.61R

 IN MA

CITY           SKY/WX    TMP DP  RH WIND       PRES   REMARKS
BOSTON         LGT RAIN  50  50 100 N30G39    29.65R
WORCESTER      LGT RAIN  48  47  96 N17G25    29.69R FOG
WESTFIELD      LGT RAIN  51  47  86 N12       29.73R
PROVINCETOWN   CLOUDY    55   1  11 NE22G30   29.57R
NANTUCKET      CLOUDY    58  56  93 N8        29.50R
$$

ANZ330-335-338-340-345-350-353-355-240100-
COASTAL MARINE OBSERVATIONS


STATION/POSITION TIME  SKY/WX   TEMP    WIND        PRES    VSBY  WAVE
                                AIR SEA DIR/SP/G                  HT/PER
                 (UTC)          (F)     (DEG/KT/KT) (MB)    (MI)  (FT/S)
NY HARB ENTRANCE NOT AVBL
4S FIRE IS       0000               63                N/A           4/ 9
20S FIRE ISLAND  0000            55 64  330/ 27/ 31 1004.5          7/ 6
23SW MTP         0000                                 N/A           6/ 5
HUDSON CANYON    0000            58 66  330/ 23/ 27 1003.2         10/ 7
EXECUTION ROCKS  0000            55 62  330/ 21/ 31   N/A
WESTERN LI SOUND 2300            54     330/ 17/ 23   N/A           2/ 3
CENTRAL LI SOUND 2300            56 63  340/ 21/ 27   N/A           3/ 4
EASTERN LI SOUND 2300            56 63   10/ 21/ 29   N/A
ROBBINS REEF     0000            53     330/ 15/ 19 1006.7
$$


>>>>>>>>>>>>>>>>>>>>>>>>>>>> KEY <<<<<<<<<<<<<<<<<<<<<<<<<<<
>                                                          <
>     SKY/WX - SKY CONDITION/PRESENT WEATHER               <
>     TMP    - TEMPERATURE IN FAHRENHEIT                   <
>     DP     - DEWPOINT IN FAHRENHEIT                      <
>     RH     - RELATIVE HUMIDITY IN PERCENT                <
>     WIND   - DIRECTION AND SPEED IN MPH                  <
>     PRES   - MEAN SEA LEVEL PRESSURE IN INCHES OF HG     <
>     WCI    - WIND CHILL INDEX                            <
>     VSB    - VISIBILITY IN MILES                         <
>     HX     - HEAT INDEX                                  <
>     TC     - TEMPERATURE IN CELSIUS                      <
>     VRB    - VARIABLE WIND DIRECTION                     <
>                                                          <
>>>>>>>>>>>>>>>>>>>>>>>>>>>> KEY <<<<<<<<<<<<<<<<<<<<<<<<<<<





USA.gov is the U.S. government's official web portal to all federal, state and local government web resources and services.